GFSMA_con_mlcape_057.txt.gz
CAPE
579 1058 929 780 627 677 525 724 971 839 693 353 577 773 688 502 153 133 417 833 1505 1823 1318 1165 1388 1431 1447 966 690 460 451 1238 1041 938 1009 931 984 828 538 341 240 362 576
877 1008 1226 901 952 747 272 691 1086 799 820 542 626 323 294 498 376 138 57 300 737 1104 1252 1453 1213 1340 1364 1205 1094 1248 666 562 551 669 611 887 782 792 734 905 377 241 232
1236 1109 645 1208 1096 1005 813 1021 1311 909 349 320 126 190 253 449 459 310 107 112 591 1120 1394 1444 1296 1254 1365 1484 1420 1242 1230 1115 969 709 921 369 727 839 984 807 565 357 342
1528 1035 785 837 901 1110 1082 987 840 207 101 111 49 24 44 321 282 308 294 216 197 540 1180 1384 1140 1255 1218 1392 1216 1196 1149 992 927 1123 806 582 551 976 916 746 892 728 618
1498 1184 696 667 728 826 539 627 428 405 832 610 35 11 12 55 48 357 294 260 185 155 358 560 730 706 1193 1261 1366 1476 1296 933 844 657 720 730 729 674 660 571 593 499 476
1392 1278 893 411 503 873 796 1017 434 641 372 0 0 4 8 47 73 27 144 273 255 228 73 166 354 438 820 1094 931 1048 1281 1301 891 809 649 543 408 376 476 384 474 545 514
1199 1471 1199 814 668 845 997 793 275 312 95 0 0 0 0 20 35 26 1 59 185 162 158 69 93 128 343 517 848 849 850 1044 1004 831 665 406 266 239 247 295 347 322 363
1645 1638 1428 1091 1291 1075 1151 838 937 449 88 0 0 8 1 1 16 22 7 0 73 115 128 127 101 196 113 293 282 291 279 407 881 832 714 448 292 235 185 96 108 106 225
1138 1593 1308 1131 1095 998 1096 742 710 360 93 0 0 2 15 0 10 15 7 0 0 22 35 114 197 271 192 234 627 215 214 572 895 871 319 103 12 0 0 0 0 0 0
1565 1787 1601 1084 1236 1042 1123 680 869 282 200 0 0 0 0 9 0 0 0 0 0 0 0 44 116 277 291 458 96 13 144 404 447 111 0 0 0 0 0 0 0 0 0
733 1549 1741 1318 1131 1383 1128 915 1005 1122 855 5 0 0 0 0 3 0 0 0 0 0 0 0 0 56 91 0 26 9 0 0 0 0 0 0 0 0 0 0 0 0 0
1089 1246 2024 1584 1644 1388 979 1098 1151 923 569 918 81 0 0 0 0 0 0 1 0 1 0 0 0 0 0 0 0 0 0 0 0 0 0 0 0 0 0 0 0 0 0
1400 1345 1429 1939 1682 1450 1277 1280 1352 1219 678 704 477 0 0 0 0 0 0 6 22 67 3 3 0 0 0 0 0 0 0 0 0 0 0 0 0 0 0 0 0 0 0
1144 1123 1358 1603 1749 1596 1268 1723 1244 1393 1386 407 757 337 0 0 0 0 0 0 0 9 1 54 24 15 9 0 0 0 0 0 0 0 0 0 0 0 0 0 0 0 0
1041 1277 1404 1394 1780 1669 1362 1086 1855 1792 1883 1519 738 854 72 0 15 35 0 0 0 0 12 78 25 1 8 2 0 0 0 0 0 0 0 0 0 0 0 0 0 0 0
978 771 1553 1538 1548 1780 1693 1493 1411 2320 1826 1864 1586 1054 561 110 32 24 47 3 7 8 1 34 17 52 65 16 0 0 0 0 0 0 0 0 0 0 0 0 0 0 0
734 2305 1991 1949 1674 1510 1910 2098 1620 1776 2191 2041 1889 1606 1109 621 10 33 85 57 26 7 1 1 27 15 0 60 0 0 0 0 0 0 0 0 0 0 0 0 0 0 0
312 856 2174 2358 1919 1626 1684 1785 1910 1906 1674 1885 2078 1744 1525 1295 881 45 174 34 13 32 2 0 11 259 8 0 0 0 13 24 10 2 0 0 0 0 0 0 0 0 0
900 638 820 1960 2216 1958 1904 1656 1494 2075 2073 2275 2150 2009 1635 1508 1144 925 257 203 80 0 33 22 1 126 42 30 18 13 15 28 57 118 142 37 0 0 0 0 0 0 0
1419 1382 1535 1320 2128 2175 1931 1856 1873 1637 1793 1708 2084 2525 2234 1830 1602 1333 849 207 103 203 89 147 121 143 180 88 6 16 48 92 85 187 143 41 7 0 0 0 0 0 0
1911 1792 1602 2375 2311 2297 2204 2014 1925 1996 2058 2014 1831 2208 2426 2387 1999 1660 1356 817 143 30 211 105 53 77 62 114 132 62 13 22 120 196 158 57 6 0 0 0 0 0 0
1992 2089 2512 2058 2392 2605 2579 2211 2191 2205 2224 2222 2198 2303 2357 2471 2379 2048 1714 1374 870 214 0 45 100 33 35 19 38 37 74 104 101 296 251 208 71 29 14 18 4 0 0
2868 2632 2295 2688 2599 2701 2579 2392 2344 2388 2359 2478 2457 2497 2578 2583 2562 2522 1925 1696 1434 968 478 43 13 37 55 93 71 79 79 81 56 72 101 85 90 88 57 85 39 0 0
2941 2973 2958 2774 2852 2979 2821 2478 2402 2682 2626 2484 2613 2870 2868 2841 2718 2593 2515 2037 1696 1343 902 506 127 101 128 180 117 135 186 90 64 53 49 55 81 85 58 46 1 0 0
3072 3015 3131 3125 3050 3077 2896 2795 2535 2713 2791 2743 2688 2704 2889 3098 3006 2594 2627 2473 2107 1747 1017 617 497 256 160 152 153 71 62 62 52 43 59 34 40 41 40 3 0 0 0
3191 3249 3186 3273 3247 3132 3192 2879 2766 2953 2700 2643 2639 2620 2588 2679 2773 2776 2808 2697 2506 2157 1564 798 455 296 192 102 36 16 3 16 15 32 25 6 32 30 6 0 0 0 0

GFSMA_con_mlcape_060.txt.gz
CAPE
660 714 699 678 448 611 527 653 712 710 590 539 486 763 725 608 553 537 945 1113 1518 1568 1307 1551 1391 1415 853 587 803 984 1020 1035 885 827 762 758 758 510 313 203 144 238 488
476 641 649 508 630 610 371 737 805 660 611 556 579 642 471 413 261 331 609 1174 1333 1652 1325 1255 1417 1391 1543 991 822 440 310 740 647 669 587 830 738 685 688 724 396 212 296
733 802 577 653 916 766 394 417 798 704 672 215 251 291 412 298 157 65 164 542 1082 1391 1420 1625 1407 1424 1389 1362 1119 1309 933 678 767 831 714 323 665 684 875 696 641 406 225
1020 654 800 1073 1015 1055 889 843 794 363 112 118 119 95 245 280 242 181 44 177 508 755 1258 1493 1396 1245 1425 1519 1531 1418 1162 1261 1093 1040 714 702 402 978 861 771 813 782 641
1067 696 598 690 731 890 673 844 334 308 441 404 191 23 104 217 238 224 169 135 195 358 623 753 1107 1103 1285 1372 1431 1334 1424 1132 925 817 797 763 662 561 657 667 567 411 303
1042 759 588 447 436 751 533 724 348 613 226 6 8 5 30 95 93 135 214 186 82 86 116 296 725 681 715 1367 1258 1478 1448 1406 1169 878 737 580 478 413 368 398 390 432 494
1097 885 465 572 207 792 742 736 377 90 43 0 0 0 0 11 49 42 125 198 178 167 21 77 116 115 186 653 748 728 1048 1190 1062 773 575 554 348 250 212 182 203 216 210
996 1120 874 728 516 775 808 796 571 301 1 0 0 0 0 3 5 6 0 47 85 134 68 79 42 30 48 184 398 561 440 562 1022 1213 970 579 269 180 158 49 0 0 0
1043 1373 1248 917 1047 1040 885 774 593 501 86 0 0 0 0 0 0 4 0 0 37 69 50 68 56 48 107 72 216 197 91 121 644 1000 661 192 54 0 0 0 0 0 0
1284 1498 1185 982 992 980 865 847 627 320 58 0 0 0 2 0 0 0 0 0 1 20 14 32 101 127 119 95 284 27 29 161 601 590 135 0 0 0 0 0 0 0 0
1051 1330 1349 1227 880 929 832 766 680 494 317 1 0 0 0 0 0 0 0 0 0 0 0 9 76 112 151 102 79 0 0 14 0 0 0 0 0 0 0 0 0 0 0
521 1290 1470 1317 983 869 1046 837 788 817 881 533 0 0 0 0 0 0 0 0 0 0 0 7 37 64 81 52 16 0 0 0 0 0 0 0 0 0 0 0 0 0 0
300 537 1046 1290 1308 1064 1131 778 883 1035 793 695 442 11 0 0 0 0 0 10 30 10 11 0 0 0 9 0 0 0 0 0 0 0 0 0 0 0 0 0 0 0 0
334 478 838 1274 1472 1417 1306 1007 1014 1033 995 736 584 261 0 0 0 0 0 0 0 9 43 45 0 0 0 0 0 0 0 0 0 0 0 0 0 0 0 0 0 0 0
329 696 890 1227 1360 1571 1434 1270 1082 1171 1241 1112 394 502 338 15 8 20 4 0 0 6 10 40 76 26 9 0 0 0 0 0 0 0 0 0 0 0 0 0 0 0 0
170 757 1057 1063 1253 1329 1457 1333 1357 1401 1394 1446 1332 922 463 268 26 5 19 0 0 0 0 0 25 29 15 6 0 0 0 0 0 0 0 0 0 0 0 0 0 0 0
456 643 852 1238 1312 1539 1453 1399 1230 1258 1489 1639 1651 1381 986 641 44 6 0 0 0 0 0 0 0 2 0 0 0 0 0 0 0 0 0 0 0 0 0 0 0 0 0
147 257 1310 1572 1228 1346 1670 1479 1309 1381 1474 1574 1795 1652 1474 1337 948 89 8 0 0 0 0 0 0 0 2 0 0 3 0 0 0 0 0 0 0 0 0 0 0 0 0
610 254 496 1061 1904 1787 1605 1579 1555 1508 1541 1428 1631 1696 1492 1586 1328 1140 492 10 0 3 0 0 0 1 10 8 8 8 0 0 0 5 27 5 2 5 0 0 0 0 0
899 783 499 637 1273 1896 1840 1506 1422 1619 1622 1393 1416 1459 1497 1594 1569 1459 1212 810 325 26 9 24 2 4 18 28 3 0 0 7 18 46 32 52 84 102 1 0 0 0 0
797 861 876 887 1014 1265 1630 1807 1593 1457 1476 1536 1543 1643 1841 1914 1739 1774 1616 1368 1085 732 304 30 34 34 36 64 45 8 0 0 2 11 3 50 115 64 0 3 2 0 0
1330 1216 1115 1096 1202 1317 1516 1580 1800 1792 1688 1557 1489 1489 1474 1568 1706 1649 1773 1806 1597 1175 853 441 111 18 41 43 56 43 22 2 8 28 54 27 25 4 0 0 0 0 0
1817 1509 1534 1374 1099 1585 1806 1766 1762 1942 1874 1904 1909 1904 1911 1992 1836 1908 1614 1569 1603 1535 1483 1051 540 272 129 32 23 32 63 43 42 78 112 27 22 10 0 27 20 43 9
2270 2116 1755 1787 1943 1837 1754 1828 1910 2102 2158 2102 2098 2124 2146 2183 2318 2239 2281 2207 1838 1704 1370 1070 1074 849 234 160 49 38 36 28 35 50 57 67 24 12 1 25 14 18 0
2548 2563 2576 2422 2173 2262 2261 2066 1924 2163 2257 2383 2395 2312 2342 2435 2494 2326 2390 2387 2384 2076 1698 1425 1308 1341 910 316 168 91 79 67 42 29 15 29 7 9 7 0 0 1 0
2693 2769 2772 2821 2828 2733 2540 2275 2265 2597 2469 2460 2513 2585 2470 2459 2392 2462 2638 2721 2705 2559 2352 2023 1398 899 591 473 63 109 186 99 41 3 2 73 41 1 0 0 0 0 0

GFSMA_con_mlcape_063.txt.gz
CAPE
809 909 661 545 608 534 519 505 603 727 651 589 531 658 980 680 655 489 831 1714 1295 1402 1411 1317 1006 756 618 635 734 838 846 766 717 476 488 558 533 481 255 185 222 163 334
536 666 629 503 411 446 405 584 417 629 485 539 553 618 574 564 516 450 848 1518 1637 1462 1298 1446 1231 1238 954 559 553 630 1010 1236 950 909 762 961 848 860 580 743 702 277 226
308 659 518 458 646 542 395 306 374 474 276 195 340 498 346 302 238 270 584 633 1278 1618 1329 1266 1335 1366 1391 1105 1055 824 442 406 507 588 594 352 559 741 791 920 741 676 551
583 687 402 662 743 687 412 410 279 337 153 96 90 141 251 225 125 57 105 313 719 1075 1394 1389 1413 1166 1277 1118 1137 1030 896 861 1022 948 635 662 348 442 979 539 782 764 583
902 521 588 849 755 735 582 450 357 230 141 436 234 67 143 234 144 106 30 48 194 480 609 774 1050 1088 1211 1315 1333 1295 1170 1120 773 698 740 502 513 442 547 483 331 384 331
937 586 522 625 519 726 522 577 454 471 261 6 23 22 48 102 164 112 127 77 29 113 232 376 533 602 725 1180 1318 1281 1043 1040 1220 1005 825 428 345 291 196 264 269 242 250
1030 663 338 407 235 556 464 480 415 204 7 0 0 1 6 12 35 104 125 138 68 7 8 37 140 267 182 403 783 738 914 1206 1109 985 738 365 386 226 154 123 132 118 165
942 824 460 523 122 576 718 610 524 102 26 0 0 0 0 1 4 2 0 64 100 81 69 15 29 52 59 84 286 551 756 719 926 1030 927 591 253 112 69 20 0 0 0
748 983 826 534 487 555 723 607 571 298 63 0 0 0 0 0 0 0 0 0 18 51 60 49 74 46 26 41 115 311 241 103 127 741 782 323 61 8 0 0 0 0 0
619 900 1078 1051 813 901 917 668 660 348 77 0 0 0 0 0 0 0 0 0 0 16 43 45 60 60 33 73 74 202 35 0 259 788 524 59 0 0 0 0 0 0 0
635 892 1119 1125 858 861 874 738 747 445 159 0 0 0 0 0 0 0 0 0 0 0 3 9 28 74 100 108 109 175 5 0 123 273 81 0 0 0 0 0 0 0 0
308 781 1182 1186 1029 868 843 719 688 632 243 294 5 0 0 0 0 0 0 0 0 0 0 13 17 78 140 132 151 178 34 0 0 0 0 0 0 0 0 0 0 0 0
35 343 1037 1071 1158 1049 819 784 752 696 613 682 545 37 0 0 0 0 0 0 1 6 17 0 0 59 113 112 110 186 46 3 0 0 0 0 0 0 0 0 0 0 0
93 62 364 1162 1193 1126 1083 900 880 642 836 768 556 500 69 0 0 0 0 0 12 5 22 60 12 3 15 54 30 41 8 5 0 0 0 0 0 0 0 0 0 0 0
89 173 199 413 799 1017 1252 1182 1136 748 920 820 786 637 498 81 2 16 2 0 0 6 2 11 45 29 14 7 22 14 15 0 0 0 0 0 0 0 0 0 0 0 0
35 134 155 464 718 917 1159 1341 1330 1097 872 988 1054 917 462 473 331 51 10 4 0 0 0 0 0 13 14 6 3 0 0 0 0 0 0 0 0 0 0 0 0 0 0
5 12 218 438 869 1073 1155 1189 1266 1368 1133 1073 1121 1190 1174 1006 711 391 79 0 0 0 0 0 0 0 0 17 11 4 0 0 0 0 0 0 0 0 0 0 0 0 0
89 135 64 325 703 1076 1245 1234 1184 1227 1323 1225 1175 1277 1364 1377 1201 891 532 11 0 0 0 0 0 0 2 4 13 10 9 0 0 0 0 0 0 0 0 0 0 0 0
167 123 313 573 803 915 1012 1196 1207 1237 1225 1244 1189 1171 1188 1432 1416 1322 1205 904 229 9 0 0 0 0 0 0 0 0 0 0 0 0 0 0 0 0 0 0 0 0 0
514 405 327 359 515 755 1287 1518 1503 1472 1333 1277 1289 1418 1427 1232 1156 1293 985 1058 1002 779 317 36 0 0 3 10 2 0 0 0 0 0 0 0 1 0 0 0 2 0 0
519 455 336 337 581 601 706 1048 1657 1613 1507 1362 1329 1357 1491 1479 1150 1198 1101 1023 1063 990 983 824 740 388 251 93 40 8 3 0 0 3 4 9 11 5 18 16 4 0 0
517 621 534 297 285 644 719 667 896 1353 1501 1504 1399 1462 1538 1496 1440 1357 1273 1505 1655 1094 892 877 781 709 548 340 125 83 26 0 0 0 0 0 12 24 40 15 0 0 4
997 705 771 764 556 559 653 697 847 1075 1143 1168 1244 1346 1418 1541 1530 1604 1501 1325 1295 1313 1486 1626 1345 1014 970 604 266 219 123 66 36 13 12 4 1 68 48 21 11 1 46
1472 1230 1018 1084 1080 1052 1041 844 784 1045 1247 1414 1479 1548 1626 1673 1747 1831 1841 1918 1765 1618 1393 1265 1428 1612 1564 1217 464 212 170 108 55 38 6 13 0 21 0 54 18 0 40
1768 1757 1603 1457 1467 1511 1268 1138 1117 1342 1455 1584 1804 1849 1879 1927 1972 1901 2069 2169 2206 2216 1925 1672 1560 1591 1451 1202 743 310 143 36 24 10 1 6 2 2 1 51 20 10 28
1859 2041 2189 2216 1929 1839 1815 1616 1355 1625 1716 1854 2004 2125 2097 2127 2073 2025 2166 2299 2437 2471 2411 2303 1846 1511 1270 1299 836 534 485 175 24 5 1 2 2 1 9 12 5 0 4

GFSMA_con_mlcape_069.txt.gz
CAPE
1333 1618 936 1025 1331 1288 1145 1212 1286 1121 1359 1399 1381 1678 1158 1230 1078 511 508 657 845 1155 1197 767 557 541 624 659 692 714 650 440 408 287 438 564 530 583 369 722 649 305 93
1365 1385 1056 1210 1125 1199 1101 1087 1299 1205 1342 1330 1231 1204 1540 1222 1153 684 452 1251 904 950 1077 1039 646 477 517 513 654 667 806 1033 713 692 575 383 734 814 777 818 678 648 592
1018 1266 887 600 1335 1143 1081 973 1143 1016 783 590 1087 1218 1210 1246 1072 716 566 681 1022 1016 1093 1239 1050 1013 1232 880 567 499 287 109 315 297 369 471 343 130 385 469 402 478 378
1171 874 1082 889 1285 1359 931 793 536 918 663 711 661 977 956 937 925 804 623 648 586 820 1057 1098 1209 1268 972 1182 1126 1068 816 716 575 526 714 579 634 582 257 335 411 297 294
1205 1181 1166 1196 731 1261 1185 994 866 765 751 1090 768 658 878 803 584 373 503 580 584 626 843 855 803 1115 1072 1297 1341 1175 1156 807 616 492 396 482 466 392 372 317 189 169 242
1365 1356 1118 1120 742 632 1033 1008 772 841 402 58 84 181 537 726 831 682 591 482 488 497 487 804 848 780 742 905 1178 1162 1170 1186 994 828 808 706 584 328 261 206 159 128 183
1389 1405 1173 1191 1196 1183 1215 1235 826 699 24 17 37 43 67 104 446 791 804 670 756 722 552 501 554 579 561 286 331 602 975 996 1093 824 595 557 335 284 138 57 50 2 0
1359 1431 1162 920 796 938 551 696 907 670 361 0 17 7 2 51 154 264 459 540 685 756 687 593 557 573 654 453 338 290 479 704 880 860 969 622 388 141 57 7 0 0 0
1256 1437 1366 775 820 914 654 607 629 827 341 0 0 3 0 0 7 233 330 398 352 480 679 756 747 617 581 486 316 330 311 470 286 313 589 722 209 35 0 0 0 0 0
947 1190 1382 1310 1196 916 616 765 873 1037 734 442 0 7 28 0 0 27 153 277 310 258 442 530 534 636 591 549 351 256 241 229 132 56 558 635 141 0 0 0 0 0 0
674 862 1215 1426 995 1281 1061 1187 955 838 1029 647 69 0 27 250 44 87 6 75 188 323 344 398 446 483 564 587 524 491 216 189 104 17 546 554 88 0 0 0 0 0 0
676 714 1052 1304 1489 1247 1412 1177 1019 1031 1128 819 341 11 16 0 90 336 212 205 128 188 149 242 343 527 452 478 512 257 164 130 99 0 112 235 47 0 0 0 0 0 0
366 605 680 949 1139 1398 1421 1536 1454 1386 1232 1295 875 681 381 209 0 0 14 91 150 256 190 292 326 446 484 480 447 363 273 170 86 0 0 0 0 0 0 0 0 0 19
91 399 489 645 955 1365 1574 1729 1645 1559 1563 1548 1562 1324 1115 923 305 169 28 8 2 83 167 188 427 368 401 463 487 285 357 264 130 12 0 0 0 0 0 0 0 9 30
58 52 175 369 573 881 1260 1685 1600 1667 1656 1607 1500 1588 1676 1429 979 508 149 26 48 31 55 181 93 406 355 373 357 401 532 527 223 84 6 0 0 0 0 0 0 0 0
193 86 82 200 453 667 892 1211 1416 1748 1757 1858 1770 1641 1511 1520 1627 1311 815 561 271 204 101 79 111 184 265 167 274 142 352 295 202 92 47 1 0 0 0 0 0 0 0
288 299 276 265 550 690 888 1052 1107 1355 1718 1810 2073 1966 1814 1751 1547 1539 1439 1158 934 561 213 48 89 92 90 117 162 361 272 240 204 71 34 29 3 0 0 0 0 0 0
305 304 337 222 303 505 742 921 889 1248 1606 1655 1880 2051 2019 2044 1865 1893 1771 1803 1544 1331 765 310 591 607 364 255 275 247 225 156 178 126 33 5 0 2 0 0 0 0 0
330 317 355 320 177 516 650 896 1029 1181 1638 1824 1983 2122 2059 2210 2102 2067 2038 1724 1519 1744 1611 1213 1048 1297 1280 986 881 698 542 497 423 182 65 13 0 0 0 0 0 0 0
422 379 386 353 343 366 448 471 764 1016 1312 1579 1788 1915 1999 2098 2177 2257 2262 2078 2091 1870 1594 1552 1269 1150 1101 1127 1115 807 848 982 1036 764 435 97 37 0 0 0 0 0 0
543 548 506 487 495 547 405 481 637 898 1152 1366 1733 1846 2030 2042 1876 1971 2149 2172 2180 2102 1994 1794 1648 1590 1537 1574 1667 1601 1525 1446 1423 965 841 684 202 3 0 0 0 0 0
579 605 525 510 522 597 303 141 365 684 992 1274 1130 1507 1836 1810 1677 1412 1336 1392 1725 2191 2159 2005 1823 1787 2219 2245 2048 2170 2212 2108 2068 1745 758 425 9 0 0 0 0 0 0
987 867 801 787 705 728 359 78 70 363 710 988 1080 1102 1101 1055 1560 1842 1840 1305 1168 1142 1321 1668 1870 2094 2307 2589 2735 2766 2524 2254 1908 1497 594 419 94 75 0 0 0 0 0
735 828 901 1003 944 920 535 127 35 341 735 961 1090 1094 1066 985 1366 1526 1449 1578 1756 1889 1785 1402 1551 1926 2311 2660 2851 2737 2485 1964 1479 1062 469 362 327 179 18 2 0 1 1
926 839 828 890 874 867 542 201 93 401 605 867 1202 1333 1393 1259 1318 1084 1222 1209 1476 1855 2106 1962 1790 1710 1698 1590 1468 1448 1664 1820 1749 1290 419 156 140 25 1 1 0 0 0
1138 1292 1281 1314 1089 874 818 342 234 767 904 1011 1368 1605 1405 1429 1544 1277 1288 1433 1746 2259 2646 2877 3002 2429 2038 2038 1785 1503 1775 1925 1558 1182 275 98 1 1 0 0 1 0 0

GFSMA_con_mlcape_072.txt.gz
CAPE
1327 1223 1353 1438 1417 1352 1234 1287 1310 1303 1369 1293 1237 1258 1041 923 443 288 624 980 1013 1176 775 576 469 540 641 684 874 796 766 494 347 315 533 678 598 625 523 762 580 463 363
1217 1246 1219 1457 1363 1308 1175 1341 1104 1314 1096 1107 985 1179 1156 1100 769 450 572 686 687 1119 1164 761 797 507 463 368 433 519 739 1064 716 608 572 317 412 652 777 804 675 767 739
1460 1174 1148 1311 1281 1333 1643 1216 999 1417 551 770 937 976 987 1199 923 718 607 734 859 744 870 1224 1039 1100 1050 745 526 481 401 162 284 375 397 567 442 326 173 505 481 390 430
1454 1047 987 1179 1461 1362 1089 952 807 708 330 505 575 486 472 773 984 958 777 758 732 1048 685 609 982 1143 1052 1106 1170 1041 1002 908 784 660 619 622 671 722 742 540 595 349 385
1837 1587 1035 887 1105 1142 549 340 503 645 325 218 238 417 600 474 456 453 706 852 703 577 735 850 551 868 1047 1044 1367 1294 1246 1192 789 672 548 526 640 708 468 309 220 228 187
1892 1663 980 1121 1004 545 583 689 526 688 332 105 74 210 434 519 371 335 520 484 481 477 370 679 1115 1033 326 659 948 1280 1151 1268 1223 1055 911 637 514 321 244 223 93 51 41
1882 1889 1314 1075 1035 797 1019 624 1029 807 116 297 39 123 78 385 322 200 207 237 531 676 526 488 666 629 752 447 194 313 640 938 925 1104 1046 618 527 227 135 37 27 0 0
1933 1644 1612 1298 838 760 879 822 1047 555 192 113 58 40 36 10 29 106 210 307 397 515 553 680 560 682 603 361 482 481 325 519 714 810 724 921 597 243 64 8 0 0 0
1780 1741 1230 1317 1355 869 839 1072 1026 1026 153 193 336 84 6 40 32 108 517 395 509 391 389 523 668 716 788 557 457 351 273 319 436 208 302 676 523 102 11 0 0 0 0
1456 1615 1518 1187 1400 1252 919 946 964 1075 1026 51 2 8 140 151 123 346 175 428 662 540 522 457 468 674 840 764 505 216 295 217 219 23 67 758 362 45 0 0 0 0 0
1498 1349 1652 1655 1660 1316 1190 1126 907 1132 1040 622 4 0 278 152 440 280 226 261 286 418 439 548 464 501 662 802 652 712 320 105 91 5 13 502 331 25 0 0 0 0 0
843 1241 1385 1739 1499 1140 1392 1424 1486 1210 1458 1088 559 122 0 57 144 347 393 437 431 389 367 351 486 597 634 645 758 486 429 145 78 35 0 223 187 21 0 0 0 0 0
271 439 1459 1566 1452 1642 1521 1532 1627 1609 1163 1455 1581 498 305 233 250 100 101 197 310 270 357 329 390 576 656 739 715 569 450 221 142 74 0 0 29 1 0 0 0 0 0
142 212 942 1237 1409 1373 1709 1857 1728 1411 1650 1346 1759 1570 785 773 753 433 291 197 172 129 269 572 411 473 559 589 643 585 620 434 274 116 32 0 0 0 0 0 0 0 0
432 513 560 869 877 1135 1427 1778 1625 1887 1945 2059 1958 2046 1958 1119 1059 971 722 399 182 125 233 381 450 716 573 553 614 627 694 873 506 292 118 45 4 0 0 0 0 0 0
752 571 608 447 607 1059 1280 1640 1244 1603 2157 1966 1669 1678 1974 1189 1398 1446 1173 762 727 624 409 297 291 368 575 586 478 585 726 646 529 321 178 109 48 9 0 0 0 0 0
1025 1186 827 755 471 843 1285 1635 1529 1247 1671 2202 2272 2304 2437 2366 1493 1036 1246 1242 918 851 788 474 231 248 654 986 981 965 871 793 666 334 192 110 65 39 19 0 0 0 0
1367 1355 1240 1137 866 753 1207 1640 1634 1089 1658 2025 2261 2482 2627 2619 2780 2704 1856 1506 1405 1504 1446 1531 1316 1044 1211 1464 1786 1616 1289 882 706 527 208 116 71 24 0 0 0 0 0
1380 1430 1390 1285 1164 744 762 1264 1525 1559 1560 1838 2256 2451 2612 2778 2817 2619 2436 1881 1605 1731 1819 1807 1514 1011 874 979 1142 1675 1903 1825 1668 1353 851 429 230 40 0 0 0 0 0
1471 1481 1512 1415 1308 1076 655 640 856 1356 1510 1627 2006 2380 2598 2696 2751 2844 2974 2857 2678 2464 1825 1808 1538 1467 1414 1499 1580 1660 1754 1823 1885 1907 1965 1704 1328 277 1 0 0 0 0
1478 1555 1609 1530 1406 1233 725 732 583 599 1039 1549 1717 1875 2128 2233 2173 2442 2519 2566 2591 2369 1849 1542 1397 1263 1103 1198 1766 1799 1889 1909 2144 2626 2535 2196 1538 1601 1239 0 0 0 0
1632 1691 1634 1630 1456 1204 561 258 470 534 631 970 1233 1469 1714 1822 1954 1725 1587 1564 1774 2381 2880 2334 1720 1546 2269 2313 1944 1983 2029 2493 3007 2852 1996 1679 1616 1513 1177 707 251 0 0
1799 1805 1804 1763 1655 1662 1041 415 250 444 448 803 1237 1269 1069 573 867 1369 1571 1616 1538 1313 1354 1659 1914 2031 2048 2266 2666 3038 3100 3057 3017 2828 2366 1843 1735 1299 1030 698 259 7 0
1930 1899 1853 1876 1845 1789 1334 845 375 618 898 1090 1220 1476 1573 1407 1450 1310 1296 1441 1741 1859 2043 1957 2041 2204 2339 2804 3191 3327 2901 2725 2554 2368 2285 1537 1359 1019 156 5 0 0 1
2043 2076 2110 2137 2078 2028 1475 1023 690 850 835 1160 1433 1664 1897 1941 1918 1439 1363 1276 1440 1552 1373 1382 1506 1703 1964 2082 1988 1971 1949 2499 2471 2232 1225 897 291 62 0 3 2 0 0
1885 1759 1821 1952 1985 2105 1948 1044 751 1047 917 919 1328 1864 1578 1647 1919 1692 1653 1598 1641 1730 1884 2220 2958 3083 2586 3013 2776 2517 2503 2571 2403 1738 779 582 21 1 0 1 3 3 1

GFSMA_con_mlcape_075.txt.gz
CAPE
1351 1262 1473 1204 1336 1004 1248 1189 969 1145 816 774 916 767 519 301 309 776 714 978 1358 838 635 582 471 601 920 917 1048 895 766 588 306 361 678 833 793 754 793 754 713 652 648
1516 1417 1359 1392 980 955 1045 1250 1227 472 714 861 631 617 709 586 389 721 462 603 970 1117 979 690 635 389 327 200 294 418 639 1007 747 569 492 307 247 186 281 585 567 528 581
1741 1453 1286 1346 1180 1322 1511 1162 1213 1214 801 274 574 418 611 745 416 294 902 823 671 708 1028 982 684 1091 875 697 461 440 397 222 239 338 300 478 597 466 315 143 401 485 364
1635 1590 1301 1347 1343 1300 964 877 798 292 701 156 435 274 586 620 452 573 222 823 1181 1176 518 453 709 999 916 1113 1149 1119 1118 955 879 730 674 690 582 593 622 604 486 269 225
1332 1668 1330 1359 1561 993 696 533 667 285 610 277 369 301 406 98 218 473 604 653 546 803 1251 407 347 578 804 897 1158 1395 1319 1219 1133 769 712 596 670 740 503 360 267 196 115
1676 1798 1385 1497 1172 631 542 716 927 329 73 216 75 259 562 598 42 61 310 512 351 302 407 506 1270 711 384 486 681 1181 1348 1173 1207 1174 1030 853 696 575 274 231 123 45 10
1505 1408 1245 1562 1135 756 718 837 728 315 43 37 6 87 32 12 124 89 137 205 212 322 375 469 481 1277 815 512 307 254 521 757 998 994 1147 1006 602 466 247 55 25 0 0
1776 1305 1456 1065 965 1075 1252 908 1182 385 78 58 54 56 11 2 32 111 64 140 256 485 443 547 449 434 511 646 924 508 306 390 628 707 835 847 775 498 150 12 0 0 0
1541 1765 1756 942 1324 1370 1112 1169 1038 1020 504 0 318 291 79 67 131 53 278 321 445 419 392 544 599 765 864 602 669 601 236 164 284 330 135 283 744 494 84 0 0 0 0
1264 1592 1377 1632 1678 845 1314 1332 1117 1605 1057 17 0 17 320 294 485 250 221 374 527 483 512 484 574 851 979 1033 711 285 371 275 216 217 0 67 532 267 36 0 0 0 0
1214 1056 1447 1492 1651 1428 1456 1478 1623 1694 595 748 4 0 209 164 253 517 549 487 401 452 500 750 548 615 1035 1024 838 971 547 136 81 85 0 12 474 222 21 0 0 0 0
1160 1251 1233 1544 1626 1513 1557 1598 1529 1608 1716 1198 512 49 47 160 510 448 424 507 551 458 441 414 516 561 671 780 1060 739 618 442 113 53 40 0 171 181 40 0 0 0 0
271 1288 1412 1614 1637 1428 1724 1816 2050 1606 1671 1191 1254 563 79 202 259 213 250 277 370 366 374 465 439 595 718 785 851 780 645 451 262 102 74 0 1 103 50 0 0 0 0
145 1646 1680 1357 1361 1716 1324 1638 1707 1487 1522 1635 1778 1744 1270 548 659 516 409 417 382 312 358 613 411 557 639 721 707 405 583 470 374 244 110 63 0 1 21 12 0 0 0
251 373 561 1343 1259 1110 1360 1860 1498 1584 1637 1912 1910 1948 1584 893 822 744 677 531 405 369 436 770 710 782 688 529 581 677 746 862 533 429 285 141 49 15 0 6 0 0 0
899 824 859 804 1068 1046 1309 1705 1385 1782 2126 1662 1819 2168 1940 1340 1303 1267 1158 926 711 678 698 604 529 594 701 662 789 757 835 620 596 434 318 205 119 63 13 0 0 0 0
1418 1329 1183 1102 788 859 1380 1843 1762 1368 1948 1951 1928 1974 1998 2072 1662 1189 1181 1305 1195 944 979 977 912 756 1568 1360 1318 1531 1853 1887 1382 740 481 275 151 64 18 0 0 0 0
1918 1808 1833 1506 1231 808 1250 1748 1710 1091 1324 1470 1788 2194 2213 2122 2772 2691 2051 1749 1384 1677 1637 1698 1673 1631 1721 1756 2103 2795 2594 1989 1942 1866 1517 982 518 236 37 0 0 0 0
1979 1918 2072 2123 1792 1272 1141 1619 1930 1804 1128 1448 1810 2253 2370 2599 2835 2586 2948 2405 1988 2133 2218 2303 2087 1521 1196 1334 1711 1997 2141 2015 2158 2131 1802 1330 870 412 171 8 0 0 0
2120 2137 2314 2370 2148 1828 1320 1053 1451 1895 1923 1572 1706 2045 2146 2402 2795 3072 3069 3153 2993 2685 2018 1912 1756 1751 1582 1640 1585 1703 1922 1672 1852 2046 2298 2653 1766 1426 766 244 15 0 0
2178 2316 2455 2452 2302 1927 1451 1276 1105 1365 1819 1836 1726 1920 2158 2283 2232 2709 2620 2608 2995 2689 2203 1848 1608 1247 1013 1193 1963 1840 1956 1919 1979 2948 3249 3045 2682 2481 2160 434 339 80 0
2231 2406 2413 2474 2347 1758 952 773 1067 1038 1130 1402 1696 2087 2258 2023 1911 1864 1891 1870 1812 2120 2768 2334 1842 1632 1886 2021 1962 1666 2146 2182 2960 3151 2904 2854 2419 2323 1559 911 44 288 59
2419 2367 2551 2559 2528 2519 1098 595 440 972 1175 1313 1493 1765 1705 770 1225 2040 1999 1696 1583 1439 1466 1758 1772 1891 1907 2317 2471 2461 3121 3540 3453 3240 2943 2677 2484 1799 490 52 0 0 0
2452 2493 2672 2744 2717 2617 1910 1075 572 761 854 1056 1436 1816 2027 1502 1230 1478 1996 2184 2176 2387 2398 2031 2168 2403 2683 2946 3359 2852 3090 3076 3004 3049 2747 2182 1652 987 28 2 0 0 0
2858 2852 3051 2885 2825 2641 1892 1366 1055 1247 1156 1435 1905 1959 1928 1959 2244 2152 1888 1500 1509 1751 1286 1106 1148 1270 1359 1335 1508 2320 2709 2805 2993 2897 1937 1889 850 237 0 2 2 0 0
2836 2442 2679 3020 2981 2892 2583 1534 1179 1454 1272 1275 1615 1986 1809 1895 2162 2099 2198 2229 2172 2422 2402 2292 2503 2724 2419 2836 2843 2566 3318 3381 3248 2541 1517 1449 333 0 0 3 2 2 1